Location: ??????????
(54.8537°N, 38.8755°E)
Time: 03:07:29
(UTC+00:00)

Vanguard 2 Rocket - Pass Details

Date: 13 September 2024
Orbit: 553 x 3298 km, 32.9° (Epoch: 10 October)

Event Time Altitude Azimuth Distance (km) Brightness Sun altitude
Rises 23:26:51 0° 218° (SW) 4,938 - -26.2°
Reaches altitude 10° 23:30:26 10° 206° (SSW) 4,337 - -25.9°
Exits shadow 23:36:06 23° 178° (S) 3,910 9.7 -25.4°
Maximum altitude 23:40:05 26° 156° (SSE) 4,043 9.9 -25.1°
Drops below altitude 10° 23:53:12 10° 110° (ESE) 6,024 11.3 -23.8°
Sets 23:59:26 0° 100° (E) 7,231 12.0 -23.2°
